Location: Grossmotten
(48.5500°N, 15.3833°E)
Time: 09:57:17
(UTC+00:00)

Cosmos 1151 Rocket - Pass Details

Date: 15 November 2019
Orbit: 593 x 616 km, 82.5° (Epoch: 08 December)

Event Time Altitude Azimuth Distance (km) Brightness Sun altitude
Rises 03:56:35 0° 356° (N) 2,899 6.4 -21.3°
Reaches altitude 10° 03:58:56 10° 4° (N) 1,987 5.6 -20.9°
Maximum altitude 04:03:05 39° 74° (ENE) 923 4.4 -20.2°
Drops below altitude 10° 04:07:10 10° 144° (SE) 1,963 6.2 -19.5°
Sets 04:09:29 0° 152° (SSE) 2,858 7.0 -19.1°
